Weather History for Jask, Iran

Change the Weather History Date:

Wednesday, November 21, 2012

  Actual Average Record
Temperature  
Mean Temperature 75 °F -  
Max Temperature 82 °F - - ()
Min Temperature 68 °F - - ()
Cooling Degree Days 10    
Growing Degree Days 25 (Base 50)    
Moisture  
Dew Point 65 °F    
Average Humidity 68    
Maximum Humidity 78    
Minimum Humidity 45    
Precipitation  
Precipitation 0.00 in - - ()
Sea Level Pressure  
Sea Level Pressure 29.94 in    
Wind  
Wind Speed 8 mph ()    
Max Wind Speed 14 mph    
Max Gust Speed -    
Visibility 5.1 miles    
Events      
T = Trace of Precipitation, MM = Missing Value Source: Averaged Metar Reports

Daily Weather History Graph

Daily Weather History Graph

Search for Another Location

Airport:

Trip Planner

Search our weather history database for the weather conditions in past years. The results will help you decide how hot, cold, wet, or windy it might be!

Date:

Astronomy

Nov. 21, 2012 Rise Set
Actual Time 6:00 AM IRST 4:48 PM IRST
Civil Twilight 5:36 AM IRST 5:12 PM IRST
Nautical Twilight 5:08 AM IRST 5:40 PM IRST
Astronomical Twilight 4:40 AM IRST 6:08 PM IRST
Moon 12:17 PM IRST (11/21) 12:29 AM IRST (11/22)
Length of Visible Light 11h 36m
Length of Day
10h 47m
First Quarter, 58% of the Moon is Illuminated
Nov 21
First Quarter
Nov 28
Full
Dec 6
Last Quarter
Dec 13
New
Dec 20
First Quarter

Hourly Weather History & Observations

Time (IRST) Temp. Heat Index Dew Point Humidity Pressure Visibility Wind Dir Wind Speed Gust Speed Precip Events Conditions
12:20 AM 69.8 °F - 57.2 °F 64% 29.95 in 5.0 mi North 9.2 mph - N/A   Clear
12:30 AM 69.8 °F - 57.2 °F 64% 29.95 in 5.0 mi North 9.2 mph - N/A   Clear
3:20 AM 68.0 °F - 55.4 °F 64% 29.92 in 5.0 mi North 11.5 mph - N/A   Clear
3:30 AM 68 °F - 56 °F 57% 29.95 in 5 mi North 11.2 mph - -   Haze
3:30 AM 68.0 °F - 55.4 °F 64% 29.92 in 5.0 mi North 11.5 mph - N/A   Clear
5:20 AM 68.0 °F - 55.4 °F 64% 29.92 in 5.0 mi NNE 6.9 mph - N/A   Clear
5:30 AM 68.0 °F - 55.4 °F 64% 29.92 in 5.0 mi NNE 6.9 mph - N/A   Clear
6:20 AM 68.0 °F - 57.2 °F 68% 29.95 in 5.0 mi NNE 11.5 mph - N/A   Unknown
6:30 AM 68.0 °F - 57.2 °F 68% 29.95 in 5.0 mi NNE 11.5 mph - N/A   Unknown
7:20 AM 82.4 °F 82.5 °F 59.0 °F 45% 29.98 in 5.0 mi North 6.9 mph - N/A   Clear
7:30 AM 82.4 °F 82.5 °F 59.0 °F 45% 29.98 in 5.0 mi North 6.9 mph - N/A   Clear
8:20 AM 82.4 °F 85.4 °F 68.0 °F 62% 29.98 in - North 6.9 mph - N/A   Clear
8:30 AM 82.4 °F 85.4 °F 68.0 °F 62% 29.98 in - North 6.9 mph - N/A   Clear
9:20 AM 78.8 °F - 66.2 °F 65% 30.01 in - East 4.6 mph - N/A   Clear
9:30 AM 78 °F - 65 °F 57% 30.02 in 6 mi East 4.5 mph - -  
9:30 AM 78.8 °F - 66.2 °F 65% 30.01 in - East 4.6 mph - N/A   Clear
10:20 AM 78.8 °F - 66.2 °F 65% 30.01 in - East 13.8 mph - N/A   Clear
10:30 AM 78.8 °F - 66.2 °F 65% 30.01 in - East 13.8 mph - N/A   Clear
11:20 AM 78.8 °F - 68.0 °F 69% 29.98 in - ESE 13.8 mph - N/A   Clear
11:30 AM 78.8 °F - 68.0 °F 69% 29.98 in - ESE 13.8 mph - N/A   Clear
12:20 PM 78.8 °F - 68.0 °F 69% 29.95 in - SE 13.8 mph - N/A   Clear
12:30 PM 78.8 °F - 68.0 °F 69% 29.95 in - SE 13.8 mph - N/A   Clear
1:20 PM 78.8 °F - 68.0 °F 69% 29.92 in - ESE 11.5 mph - N/A   Clear
2:20 PM 78.8 °F - 71.6 °F 78% 29.89 in 6.2 mi SE 11.5 mph - N/A   Partly Cloudy
2:30 PM 78.8 °F - 71.6 °F 78% 29.89 in 6.2 mi SE 11.5 mph - N/A   Partly Cloudy
3:20 PM 78.8 °F - 69.8 °F 74% 29.89 in 5.0 mi SE 11.5 mph - N/A   Mostly Cloudy
3:30 PM 79 °F - 69 °F 64% 29.92 in 5 mi SE 11.2 mph - -   Haze
3:30 PM 78.8 °F - 69.8 °F 74% 29.89 in 5.0 mi SE 11.5 mph - N/A   Mostly Cloudy
4:20 PM 78.8 °F - 69.8 °F 74% 29.89 in 5.0 mi SSE 11.5 mph - N/A   Scattered Clouds
4:30 PM 78.8 °F - 69.8 °F 74% 29.89 in 5.0 mi SSE 11.5 mph - N/A   Scattered Clouds
5:20 PM 77.0 °F - 69.8 °F 78% 29.89 in 5.0 mi SSE 11.5 mph - N/A   Unknown
5:30 PM 77.0 °F - 69.8 °F 78% 29.89 in 5.0 mi SSE 11.5 mph - N/A   Unknown
6:20 PM 77.0 °F - 69.8 °F 78% 29.89 in 5.0 mi SE 9.2 mph - N/A   Unknown
6:30 PM 77.0 °F - 69.8 °F 78% 29.89 in 5.0 mi SE 9.2 mph - N/A   Unknown
7:20 PM 77.0 °F - 69.8 °F 78% 29.89 in 5.0 mi North 11.5 mph - N/A   Unknown
8:20 PM 77.0 °F - 68.0 °F 74% 29.92 in 5.0 mi Calm Calm - N/A   Unknown
8:30 PM 77.0 °F - 68.0 °F 74% 29.92 in 5.0 mi Calm Calm - N/A   Unknown
9:20 PM 77.0 °F - 69.8 °F 78% 29.92 in 5.0 mi Calm Calm - N/A   Unknown
9:30 PM 77 °F - 69 °F 70% 29.95 in 5 mi Calm Calm - -   Haze
9:30 PM 77.0 °F - 69.8 °F 78% 29.92 in 5.0 mi Calm Calm - N/A   Unknown